Theta_e
320 319 321 322 320 321 322 323 324 326 329 341 340 340 340 348 349 350 349 349 348 347 345 344 350 350 348 348 351 352 352 350 349 347 347 347 348 347 351 352 349 351 351 351
320 320 320 322 322 322 321 322 323 325 327 339 342 343 339 344 346 348 348 347 347 346 344 344 347 349 349 349 352 352 352 351 350 351 348 347 348 349 349 352 352 352 353 352
318 320 322 323 323 323 322 322 323 325 328 342 344 347 344 340 342 344 345 345 345 345 344 344 344 348 349 348 351 351 352 353 352 352 351 351 350 354 355 354 353 352 352 352
318 321 322 322 324 324 321 323 324 326 328 339 341 346 347 343 338 338 344 344 344 344 343 343 344 347 348 349 350 350 351 351 354 353 353 353 354 355 352 351 352 350 351 352
323 323 323 324 324 324 323 323 324 325 326 334 343 343 341 343 345 340 340 343 343 343 343 343 344 345 348 348 350 350 350 352 353 354 354 353 353 352 348 351 356 353 352 353
323 322 323 323 324 324 323 321 321 325 324 335 332 344 340 344 345 343 342 341 343 343 343 342 344 345 346 348 350 351 351 353 353 354 354 354 354 353 350 353 353 354 353 353
325 324 322 323 322 321 321 318 319 322 324 327 330 339 340 339 344 344 343 341 341 342 342 342 343 344 345 347 350 352 352 354 355 356 356 355 354 350 351 350 352 352 353 353
325 326 323 321 323 322 317 319 320 322 325 326 325 338 339 337 340 344 343 343 340 340 341 342 342 344 345 347 350 353 353 353 355 355 355 354 353 350 353 354 352 350 352 353
322 324 325 325 323 322 320 318 318 318 322 326 327 331 331 337 338 344 345 344 342 340 340 341 343 344 345 347 351 353 353 353 355 355 353 354 354 353 354 354 354 352 352 350
319 323 323 326 323 322 322 317 319 313 320 321 323 329 332 332 340 340 345 344 343 340 339 340 340 343 346 346 350 353 354 353 354 356 355 354 352 353 355 356 356 351 349 348
320 318 322 324 325 324 322 319 317 316 317 321 321 323 323 327 332 338 344 343 342 341 340 340 340 341 344 347 350 355 355 354 355 356 356 356 355 353 353 357 358 355 352 349
318 318 321 321 321 324 324 322 317 321 318 318 321 323 327 325 331 339 340 341 341 341 339 341 340 340 343 347 348 353 358 356 357 358 358 357 357 356 354 353 354 359 355 352
322 318 320 319 320 321 322 322 321 313 315 321 323 322 322 322 334 338 339 338 339 337 336 338 339 340 341 346 347 352 357 358 358 359 359 359 359 359 357 355 354 353 359 354
316 322 320 324 322 322 321 324 321 320 321 320 321 322 322 324 333 338 339 339 338 337 336 336 338 341 341 346 348 350 354 359 359 360 359 359 360 361 360 358 356 355 354 358
315 318 320 321 323 323 324 325 324 321 321 321 321 319 318 318 328 335 337 338 338 337 337 337 338 342 342 346 348 350 353 358 360 361 361 360 360 360 361 361 359 356 355 356
314 318 317 323 325 323 324 324 325 324 323 321 319 319 318 320 323 330 334 336 336 332 335 334 339 341 344 346 348 349 352 358 360 361 362 362 362 361 361 362 362 359 358 356
315 316 318 322 324 324 324 325 325 325 325 323 321 321 321 323 329 331 334 334 336 333 332 337 339 342 344 346 349 349 351 356 360 361 362 362 363 362 362 362 362 362 359 359
317 318 317 320 321 326 325 324 324 323 324 325 323 322 322 323 322 329 329 333 334 332 334 338 339 341 343 345 348 350 351 353 359 360 361 362 362 362 363 363 362 362 362 358
317 318 320 322 327 326 330 325 324 322 324 327 325 324 324 323 325 337 333 327 323 327 327 332 338 342 344 344 345 348 350 353 353 358 360 361 362 361 363 363 363 362 362 360
317 317 321 322 325 330 327 329 329 328 328 342 327 328 330 325 324 329 338 337 336 335 329 325 336 343 346 346 344 345 347 350 352 353 356 359 361 361 361 363 362 362 362 361
331 329 325 323 325 325 329 332 329 331 331 343 339 337 334 337 329 334 337 337 337 338 339 331 327 331 345 348 347 345 346 348 350 352 353 354 359 360 361 363 363 362 361 361
330 334 332 328 332 330 335 340 330 331 341 340 340 339 338 337 343 341 342 340 335 340 344 342 331 327 333 345 351 348 347 348 349 349 351 354 357 360 361 363 364 362 361 359
329 329 332 332 336 331 329 344 346 347 349 349 348 345 349 350 350 352 355 355 355 355 356 357 350 357 360 340 354 352 351 349 351 352 353 356 359 360 363 364 363 360 358 355
329 329 333 334 331 336 332 333 342 341 342 341 342 344 347 348 350 351 353 354 355 355 357 359 359 358 360 361 350 355 355 353 356 357 363 365 364 364 364 362 360 357 353 350
328 331 333 334 334 335 333 330 335 340 339 338 337 337 340 344 344 349 350 351 352 351 351 355 357 359 359 361 363 361 363 361 364 364 364 362 358 355 350 349 349 350 350 351
326 329 333 339 332 334 331 329 329 330 331 332 334 335 334 336 337 340 342 343 347 350 350 350 351 352 354 353 352 357 361 360 358 351 347 345 339 334 333 336 337 342 348 347
Wind_Speed
6 5 13 11 7 6 4 5 8 11 4 4 17 19 20 25 22 22 21 21 21 23 20 23 36 37 34 36 41 41 41 43 41 34 28 26 23 22 20 17 17 18 17 17
4 13 8 8 7 10 9 13 17 9 10 8 10 20 19 25 26 27 24 22 23 20 18 21 30 36 39 38 40 40 45 45 43 36 32 27 26 23 22 19 18 17 20 20
12 8 12 10 11 11 15 16 15 9 7 1 8 3 3 9 14 17 22 24 22 24 21 20 23 34 39 38 40 43 45 45 44 39 34 29 25 24 24 23 22 24 20 23
10 12 13 18 14 14 13 15 14 8 4 7 6 4 6 10 9 14 20 21 22 23 22 21 24 31 37 40 43 44 45 44 41 41 38 34 29 28 30 28 23 22 23 23
10 19 19 16 18 18 14 12 10 10 6 4 4 4 7 9 12 11 18 24 23 24 24 23 25 37 42 41 41 45 47 45 42 41 40 39 34 32 26 23 20 25 25 23
18 8 15 16 13 17 14 7 8 3 5 8 14 13 6 11 12 17 17 20 26 24 25 25 36 38 37 39 39 39 42 42 44 43 43 42 39 33 29 27 20 25 28 25
10 18 6 10 10 11 11 7 5 7 8 10 10 6 12 18 19 24 23 22 25 25 24 23 22 22 32 35 37 38 41 39 43 47 46 44 41 34 31 32 29 27 29 29
12 9 19 11 17 15 9 15 9 10 4 5 6 9 13 15 17 26 27 22 22 24 24 25 25 28 35 37 39 40 41 40 41 44 46 45 41 37 34 31 31 30 33 34
8 13 4 15 13 17 10 10 12 6 3 2 4 7 6 10 12 24 25 22 23 27 26 28 26 32 38 37 41 44 42 42 43 45 46 46 44 40 37 35 26 30 34 34
8 4 12 18 17 17 18 7 4 2 15 17 5 6 8 8 14 14 22 25 26 23 27 26 22 28 37 42 43 43 45 46 46 45 43 45 45 44 41 36 33 34 34 34
19 9 10 5 15 17 11 11 3 6 8 12 7 16 9 10 10 14 22 26 26 24 22 25 24 31 40 41 39 41 40 42 40 42 41 40 42 43 43 43 36 35 35 36
13 15 16 25 12 12 20 15 11 9 7 6 16 25 3 10 9 11 19 25 25 17 15 20 25 23 29 34 36 41 40 41 43 43 42 41 40 38 43 43 45 37 38 38
8 6 10 9 14 16 8 13 19 5 5 18 9 8 7 5 6 9 9 8 10 8 8 7 10 18 19 32 37 38 39 43 43 42 41 39 38 38 43 45 42 46 41 42
11 6 12 19 13 6 8 17 12 19 15 11 22 5 6 1 7 9 14 15 16 13 11 12 12 16 19 32 37 39 40 43 43 43 42 40 40 42 43 43 43 43 47 44
6 6 4 13 15 21 14 12 21 22 24 22 16 13 10 9 9 8 14 14 14 19 17 15 17 17 19 27 35 37 37 39 43 42 42 43 43 43 40 38 40 41 43 43
6 5 7 7 10 22 24 20 19 23 23 19 6 7 10 13 9 7 11 13 14 10 8 9 17 23 24 25 33 38 39 41 42 41 43 42 40 39 39 38 38 38 39 40
4 4 8 6 6 18 20 31 17 11 16 17 15 10 9 8 8 10 10 8 12 9 11 11 16 21 22 32 41 38 41 40 42 44 40 40 39 39 39 38 35 36 36 36
9 8 4 6 7 14 24 18 20 10 7 10 12 10 12 13 11 10 9 9 12 9 7 9 10 13 29 35 34 38 37 39 40 41 38 38 39 38 36 36 36 34 33 34
19 12 4 3 3 7 4 8 13 9 11 8 9 11 12 11 6 5 4 2 8 9 9 7 13 19 18 27 34 30 30 35 36 36 38 39 40 38 36 37 36 33 32 32
22 18 9 6 4 6 6 5 13 7 4 5 10 9 9 8 6 4 4 3 4 1 5 7 13 21 28 31 25 33 35 33 33 38 41 42 39 38 38 37 34 32 34 33
3 3 8 12 10 9 8 6 4 8 6 1 4 7 8 6 6 7 5 2 2 2 2 5 9 8 26 29 32 28 26 29 43 44 43 38 40 40 38 34 32 32 32 31
5 5 3 4 5 8 25 13 7 6 4 7 5 4 10 8 8 6 5 4 5 2 1 1 2 10 21 25 33 27 27 44 44 37 33 34 35 36 33 34 32 32 32 29
7 5 5 5 5 12 12 7 6 9 9 4 6 8 12 9 7 7 7 8 8 6 6 10 3 5 4 20 26 25 38 36 34 32 32 33 34 36 36 37 32 32 31 26
10 7 3 4 1 9 15 13 8 14 12 11 13 10 11 13 8 10 9 8 8 7 7 10 10 8 4 10 27 29 24 32 33 33 31 31 33 32 32 33 35 32 29 28
2 4 6 2 10 12 11 14 7 12 13 15 16 15 10 12 9 10 9 8 7 7 8 11 8 7 11 13 5 21 22 28 22 25 31 30 28 29 30 26 21 27 28 35
3 2 5 1 4 4 6 12 10 20 17 13 13 17 14 13 11 9 10 6 6 7 11 10 11 10 12 18 22 16 14 37 35 27 22 20 24 28 25 31 27 21 27 14
Wind_Direction
215 183 225 222 206 225 229 246 253 270 335 87 161 165 172 175 175 178 182 185 190 188 197 184 183 187 190 191 190 189 189 197 201 203 204 208 212 214 220 228 226 218 212 213
236 230 210 199 214 225 232 249 262 307 280 167 200 178 174 175 184 183 184 187 192 194 189 187 177 184 190 189 190 186 193 198 202 203 203 203 207 210 219 223 228 234 222 213
208 222 199 201 224 225 232 232 250 235 312 265 130 42 169 195 191 192 192 188 191 191 190 191 184 185 188 189 187 188 192 197 201 203 203 203 207 214 220 227 231 239 227 222
231 227 206 210 221 218 238 233 242 249 276 244 163 222 214 223 215 192 196 194 195 197 198 188 189 188 192 194 193 191 194 198 198 201 200 199 202 214 226 232 238 225 221 213
218 194 216 212 214 216 242 239 235 227 233 217 264 128 245 160 222 211 196 197 196 197 197 194 195 195 195 192 193 195 195 198 199 200 201 201 205 215 224 224 239 220 211 211
220 234 201 216 219 219 226 249 253 211 201 228 227 214 239 211 211 222 203 202 198 197 199 200 199 197 196 195 193 193 192 194 199 199 201 203 206 213 219 224 235 218 204 203
222 231 234 196 202 221 197 171 252 248 230 234 208 226 227 208 211 204 206 203 200 197 197 200 197 198 196 193 191 190 190 191 193 195 198 203 208 215 220 225 224 214 203 201
205 244 214 214 207 213 196 201 203 213 213 251 214 222 232 228 213 199 207 204 198 198 197 198 196 198 197 193 189 188 190 192 193 194 198 205 213 217 220 224 224 216 209 204
181 235 265 209 218 193 219 205 202 197 207 268 221 250 295 243 207 208 206 194 199 200 198 199 198 197 197 193 190 189 189 193 194 197 202 207 213 214 216 222 216 212 203 205
219 279 219 235 215 241 209 179 187 241 222 240 240 220 233 203 221 198 203 200 200 197 199 203 200 198 198 195 192 190 191 191 194 198 200 206 212 215 216 221 216 207 208 207
212 195 240 210 225 218 209 209 230 173 196 225 241 251 192 235 219 206 199 197 202 192 191 200 204 200 197 195 189 191 190 193 194 196 199 202 209 212 214 219 223 215 213 212
278 216 230 230 221 205 222 214 184 215 234 235 227 244 132 207 230 206 212 203 205 189 178 195 205 200 193 193 189 190 189 192 195 195 198 202 207 207 213 215 221 222 216 216
324 231 231 255 251 243 199 223 217 134 133 222 210 244 187 195 207 217 184 168 174 180 208 211 199 194 189 190 193 191 189 194 195 195 197 201 204 204 212 216 215 221 222 221
345 243 244 237 221 184 197 222 210 210 215 216 233 202 280 151 206 221 201 205 187 186 208 189 189 197 194 191 191 193 193 194 193 195 197 199 202 207 211 214 215 217 221 223
21 282 282 290 261 207 200 195 211 214 219 211 228 207 231 235 206 225 231 208 202 194 190 181 203 199 197 191 193 196 195 194 193 194 198 202 203 207 210 211 213 214 218 220
333 282 331 275 255 229 217 222 228 216 216 228 172 209 186 232 194 223 207 222 195 211 203 196 221 198 191 189 191 193 194 194 192 198 203 200 202 205 207 208 209 210 215 217
268 311 354 278 311 218 233 215 204 208 216 212 205 197 188 191 197 201 221 214 230 209 185 184 201 195 196 191 190 191 193 191 192 200 203 201 200 203 205 205 204 206 206 210
241 270 249 274 307 215 220 212 218 203 218 216 226 213 192 204 204 195 176 190 210 222 249 163 167 199 194 196 193 193 191 189 193 200 201 201 201 202 202 202 204 202 201 201
219 231 262 261 264 270 156 186 187 171 241 204 205 223 208 197 82 2 299 235 196 182 194 183 169 181 196 195 192 189 186 193 197 199 202 201 201 198 197 201 202 198 194 196
221 213 200 258 314 261 213 226 126 119 207 277 173 179 153 127 132 224 246 143 127 212 201 200 192 182 182 204 202 182 186 191 197 202 204 202 199 197 196 198 199 194 193 196
50 45 198 253 247 273 328 321 107 123 223 112 121 137 136 118 176 182 190 264 249 234 31 187 218 213 185 192 183 190 199 194 203 207 205 198 197 196 197 193 190 189 191 193
126 148 147 281 281 255 354 320 156 176 151 123 91 103 94 88 80 87 100 146 213 238 326 181 172 205 227 194 182 189 191 205 206 204 203 200 198 191 188 184 183 184 181 182
158 177 172 148 238 309 291 316 340 92 98 31 73 105 106 93 73 74 73 63 59 36 17 358 197 160 188 202 198 187 205 202 198 190 193 187 185 181 182 180 175 171 174 165
174 152 120 60 275 2 352 325 21 51 71 88 80 66 86 102 88 82 74 65 65 49 43 33 30 1 349 203 207 213 212 193 181 179 172 172 171 167 170 173 172 167 163 163
201 129 105 297 308 342 341 350 309 68 69 70 71 73 68 87 61 82 69 57 60 54 39 47 53 49 25 19 151 182 174 165 157 155 154 147 145 149 140 140 147 158 166 168
7 114 131 165 328 269 312 326 57 68 55 32 50 72 60 62 69 67 61 49 52 56 49 41 39 53 54 48 33 34 145 151 141 133 133 129 132 128 114 114 105 119 125 155